When you browse on this site, cookies collect data to enhance your experience and personalize the content and advertising you see.
Visit our Privacy Policy to learn more. By continuing to use the site, you agree to this use of cookies and data.
  • In Czech Republic
  • List of Countries
  • For 7 days
  • Water Temperature
  • Satellite Maps
  • Weather Map
  • Weather Widgets
  • user-avatar
    Login

    Hourly Weather Bologna

    Today, 16 December, Sunday

    Time Temperature Precipitation Wind Pressure Humidity
    00:00 +2°C° 0 mm 1 mps 758 mmHg 57%
    01:00 +2°C° 0 mm 1 mps 758 mmHg 55%
    02:00 +2°C° 0 mm 1 mps 758 mmHg 56%
    03:00 +2°C° 0 mm 1 mps 758 mmHg 56%
    04:00 +2°C° 0 mm 1 mps 757 mmHg 57%
    05:00 +2°C° 0 mm 1 mps 757 mmHg 58%
    06:00 +2°C° 0 mm 1 mps 757 mmHg 58%
    07:00 +2°C° 0 mm 1 mps 757 mmHg 59%
    08:00 +3°C° 0 mm 1 mps 757 mmHg 57%
    09:00 +4°C° 0 mm 1 mps 758 mmHg 55%
    10:00 +5°C° 0 mm 1 mps 758 mmHg 53%
    11:00 +6°C° 0 mm 1 mps 757 mmHg 52%
    12:00 +6°C° 0 mm 1 mps 757 mmHg 51%
    13:00 +7°C° 0 mm 1 mps 757 mmHg 50%
    14:00 +7°C° 0 mm 1 mps 757 mmHg 54%
    15:00 +6°C° 0 mm 1 mps 757 mmHg 58%
    16:00 +6°C° 0 mm 1 mps 757 mmHg 62%
    17:00 +5°C° 0 mm 1 mps 757 mmHg 64%
    18:00 +5°C° 0 mm 1 mps 756 mmHg 66%
    19:00 +5°C° 0 mm 1 mps 756 mmHg 69%
    20:00 +5°C° 0.5 mm 1 mps 756 mmHg 71%
    21:00 +5°C° 0.5 mm 1 mps 756 mmHg 74%
    22:00 +4°C° 0.5 mm 2 mps 756 mmHg 77%
    23:00 +4°C° 0.9 mm 2 mps 756 mmHg 80%

    Tomorrow, 17 December, Monday

    Time Temperature Precipitation Wind Pressure Humidity
    00:00 +4°C° 0.9 mm 2 mps 755 mmHg 83%
    01:00 +3°C° 0.9 mm 2 mps 755 mmHg 86%
    02:00 +3°C° 1.2 mm 2 mps 755 mmHg 87%
    03:00 +3°C° 1.2 mm 2 mps 754 mmHg 88%
    04:00 +3°C° 1.2 mm 2 mps 754 mmHg 89%
    05:00 +3°C° 0.8 mm 2 mps 754 mmHg 88%
    06:00 +2°C° 0.8 mm 3 mps 755 mmHg 88%
    07:00 +2°C° 0.8 mm 3 mps 755 mmHg 87%
    08:00 +2°C° 0.7 mm 3 mps 755 mmHg 87%
    09:00 +2°C° 0.7 mm 3 mps 756 mmHg 86%
    10:00 +1°C° 0.7 mm 4 mps 756 mmHg 86%
    11:00 +2°C° 0.4 mm 3 mps 756 mmHg 86%
    12:00 +3°C° 0.4 mm 3 mps 757 mmHg 85%
    13:00 +3°C° 0.4 mm 3 mps 757 mmHg 85%
    14:00 +3°C° 0.1 mm 3 mps 757 mmHg 84%
    15:00 +3°C° 0.1 mm 3 mps 758 mmHg 83%
    16:00 +3°C° 0.1 mm 3 mps 758 mmHg 82%
    17:00 +4°C° 0 mm 2 mps 759 mmHg 82%
    18:00 +3°C° 0 mm 2 mps 760 mmHg 82%
    19:00 +3°C° 0 mm 2 mps 760 mmHg 82%
    20:00 +3°C° 0 mm 2 mps 761 mmHg 82%
    21:00 +3°C° 0 mm 2 mps 762 mmHg 82%
    22:00 +2°C° 0 mm 2 mps 762 mmHg 81%
    23:00 +2°C° 0 mm 2 mps 763 mmHg 81%

    Day after tomorrow, 18 December, Tuesday

    Time Temperature Precipitation Wind Pressure Humidity
    00:00 +2°C° 0 mm 2 mps 763 mmHg 80%
    01:00 +2°C° 0 mm 2 mps 763 mmHg 80%
    02:00 +2°C° 0 mm 2 mps 763 mmHg 79%
    03:00 +2°C° 0 mm 2 mps 764 mmHg 79%
    04:00 +2°C° 0 mm 2 mps 764 mmHg 78%
    05:00 +2°C° 0 mm 2 mps 764 mmHg 78%
    06:00 +2°C° 0 mm 2 mps 764 mmHg 77%
    07:00 +2°C° 0 mm 1 mps 764 mmHg 77%
    08:00 +3°C° 0 mm 1 mps 765 mmHg 76%
    09:00 +4°C° 0 mm 1 mps 765 mmHg 76%
    10:00 +5°C° 0 mm 1 mps 765 mmHg 76%
    11:00 +6°C° 0 mm 1 mps 765 mmHg 75%
    12:00 +6°C° 0 mm 0 mps 765 mmHg 75%
    13:00 +7°C° 0 mm 0 mps 764 mmHg 74%
    14:00 +6°C° 0 mm 0 mps 764 mmHg 75%
    15:00 +6°C° 0 mm 0 mps 764 mmHg 76%
    16:00 +5°C° 0 mm 0 mps 764 mmHg 77%
    17:00 +4°C° 0 mm 0 mps 763 mmHg 78%
    18:00 +5°C° 0 mm 1 mps 763 mmHg 78%
    19:00 +4°C° 0 mm 1 mps 763 mmHg 78%
    20:00 +4°C° 0 mm 1 mps 763 mmHg 78%
    21:00 +4°C° 0 mm 1 mps 763 mmHg 78%
    22:00 +4°C° 0 mm 1 mps 763 mmHg 77%
    23:00 +4°C° 0 mm 1 mps 763 mmHg 77%

    19 December, Wednesday

    Time Temperature Precipitation Wind Pressure Humidity
    00:00 +3°C° 0 mm 1 mps 762 mmHg 78%
    01:00 +3°C° 0 mm 1 mps 762 mmHg 78%
    02:00 +3°C° 0 mm 1 mps 762 mmHg 78%
    03:00 +3°C° 0 mm 1 mps 761 mmHg 78%
    04:00 +3°C° 0 mm 1 mps 761 mmHg 78%
    05:00 +3°C° 0 mm 1 mps 761 mmHg 78%
    06:00 +3°C° 0 mm 1 mps 761 mmHg 78%
    07:00 +3°C° 0 mm 1 mps 761 mmHg 78%
    08:00 +4°C° 0 mm 1 mps 761 mmHg 78%
    09:00 +5°C° 0 mm 1 mps 761 mmHg 78%
    10:00 +5°C° 0 mm 0 mps 761 mmHg 78%
    11:00 +7°C° 0 mm 1 mps 761 mmHg 77%
    12:00 +7°C° 0 mm 1 mps 761 mmHg 76%
    13:00 +8°C° 0 mm 1 mps 760 mmHg 75%
    14:00 +8°C° 0 mm 1 mps 760 mmHg 77%
    15:00 +8°C° 0 mm 1 mps 760 mmHg 78%
    16:00 +7°C° 0 mm 1 mps 760 mmHg 80%
    17:00 +7°C° 0 mm 1 mps 760 mmHg 81%
    18:00 +6°C° 0 mm 1 mps 760 mmHg 81%
    19:00 +5°C° 0 mm 2 mps 759 mmHg 82%
    20:00 +5°C° 0 mm 2 mps 759 mmHg 82%
    21:00 +5°C° 0 mm 2 mps 759 mmHg 81%
    22:00 +5°C° 0 mm 2 mps 759 mmHg 81%
    23:00 +5°C° 0 mm 2 mps 758 mmHg 81%

    20 December, Thursday

    Time Temperature Precipitation Wind Pressure Humidity
    00:00 +5°C° 0 mm 2 mps 758 mmHg 81%
    01:00 +5°C° 0 mm 2 mps 757 mmHg 81%
    02:00 +5°C° 0.6 mm 2 mps 757 mmHg 83%
    03:00 +5°C° 0.6 mm 2 mps 757 mmHg 85%
    04:00 +5°C° 0.6 mm 2 mps 756 mmHg 87%
    05:00 +5°C° 2.4 mm 2 mps 756 mmHg 89%
    06:00 +5°C° 2.4 mm 2 mps 756 mmHg 92%
    07:00 +5°C° 2.4 mm 2 mps 756 mmHg 95%
    08:00 +5°C° 1 mm 2 mps 756 mmHg 95%
    09:00 +5°C° 1 mm 2 mps 756 mmHg 95%
    10:00 +6°C° 1 mm 2 mps 756 mmHg 96%
    11:00 +6°C° 0.2 mm 2 mps 756 mmHg 95%
    12:00 +6°C° 0.2 mm 2 mps 756 mmHg 93%
    13:00 +5°C° 0.2 mm 3 mps 756 mmHg 92%
    14:00 +5°C° 0.3 mm 3 mps 756 mmHg 92%
    15:00 +5°C° 0.3 mm 4 mps 756 mmHg 91%
    16:00 +5°C° 0.3 mm 4 mps 756 mmHg 91%
    17:00 +5°C° 0.4 mm 4 mps 756 mmHg 91%
    18:00 +5°C° 0.4 mm 4 mps 757 mmHg 90%
    19:00 +5°C° 0.4 mm 4 mps 757 mmHg 90%
    20:00 +5°C° 0.3 mm 4 mps 758 mmHg 89%
    21:00 +5°C° 0.3 mm 3 mps 758 mmHg 89%
    22:00 +5°C° 0.3 mm 3 mps 759 mmHg 88%
    23:00 +5°C° 0.1 mm 3 mps 759 mmHg 88%

    21 December, Friday

    Time Temperature Precipitation Wind Pressure Humidity
    00:00 +5°C° 0.1 mm 3 mps 759 mmHg 88%
    01:00 +6°C° 0.1 mm 2 mps 760 mmHg 88%
    02:00 +5°C° 0 mm 2 mps 760 mmHg 87%
    03:00 +5°C° 0 mm 2 mps 760 mmHg 87%
    04:00 +5°C° 0 mm 2 mps 760 mmHg 87%
    05:00 +5°C° 0 mm 1 mps 761 mmHg 87%
    06:00 +5°C° 0 mm 1 mps 761 mmHg 86%
    07:00 +5°C° 0 mm 1 mps 762 mmHg 86%
    08:00 +6°C° 0 mm 1 mps 762 mmHg 83%
    09:00 +7°C° 0 mm 1 mps 762 mmHg 81%
    10:00 +8°C° 0 mm 1 mps 762 mmHg 78%
    11:00 +8°C° 0 mm 1 mps 762 mmHg 76%
    12:00 +8°C° 0 mm 0 mps 762 mmHg 73%
    13:00 +9°C° 0 mm 0 mps 762 mmHg 70%
    14:00 +9°C° 0 mm 0 mps 762 mmHg 74%
    15:00 +8°C° 0 mm 0 mps 762 mmHg 77%
    16:00 +8°C° 0 mm 0 mps 762 mmHg 80%
    17:00 +8°C° 0 mm 1 mps 762 mmHg 82%
    18:00 +8°C° 0 mm 1 mps 762 mmHg 83%
    19:00 +8°C° 0 mm 1 mps 762 mmHg 84%
    20:00 +7°C° 0 mm 1 mps 762 mmHg 85%
    21:00 +7°C° 0 mm 1 mps 762 mmHg 85%
    22:00 +7°C° 0 mm 1 mps 762 mmHg 86%
    23:00 +7°C° 0 mm 1 mps 762 mmHg 87%
    Show more